Location: Alpino
(32.5215°N, 116.5815°W)
Time: 10:32:20
(UTC+00:00)

DMSP B5D2-2 - Pass Details

Date: 13 April 2024
Orbit: 788 x 802 km, 98.3° (Epoch: 23 May)

Event Time Altitude Azimuth Distance (km) Brightness Sun altitude
Rises 12:09:18 0° 178° (S) 3,272 7.1 -14.8°
Reaches altitude 10° 12:11:39 10° 182° (S) 2,345 6.3 -14.4°
Maximum altitude 12:16:43 54° 260° (W) 949 4.1 -13.4°
Drops below altitude 10° 12:21:48 10° 337° (NNW) 2,354 6.5 -12.4°
Sets 12:24:11 0° 342° (NNW) 3,286 7.3 -11.9°
